SCP
6 8 10 12 10 9 9 8 7 7 6 5 3 3 3 4 4 4 5 6 4 3 2 3 3 3 4 4 5 5 5 4 4 4 3 2 2 2 3 3 2 2 2
6 8 11 13 12 10 10 9 9 8 7 5 4 3 3 4 4 4 5 6 5 3 2 2 3 3 4 4 4 4 4 4 4 3 3 3 2 2 2 2 2 2 2
6 8 12 14 13 11 11 11 10 9 7 5 4 4 4 4 4 4 6 6 5 3 2 2 2 3 3 4 4 4 4 3 3 3 3 3 3 3 3 2 2 2 2
5 7 10 13 13 11 10 11 11 9 7 6 5 5 5 5 4 5 5 6 5 4 3 2 3 3 4 4 4 4 4 3 3 3 3 3 3 3 2 2 2 2 2
5 6 8 11 11 9 9 11 11 10 8 7 6 5 5 5 4 4 4 5 4 3 2 2 3 3 4 3 3 3 3 3 3 2 2 2 2 2 2 1 1 1 2
5 7 9 10 10 9 10 11 11 10 8 7 6 5 5 4 3 3 3 3 3 3 2 2 2 3 3 3 3 3 3 3 2 2 2 2 2 2 1 1 1 1 1
7 9 11 11 11 11 11 10 8 7 6 5 5 5 4 3 3 2 2 2 2 2 2 2 2 2 2 2 3 3 3 3 3 3 3 2 2 2 1 1 1 1 1
8 9 9 10 10 9 8 7 5 4 4 4 4 4 4 3 2 2 2 3 2 2 2 2 2 2 2 2 2 2 2 2 3 2 3 3 3 3 2 1 1 1 1
6 6 6 6 6 6 6 6 5 4 3 3 4 4 4 3 3 3 3 3 3 2 3 3 2 2 2 2 2 2 2 2 2 2 2 2 3 3 3 2 1 1 1
3 4 4 4 4 4 6 8 7 6 4 4 5 5 4 4 3 4 4 5 4 4 4 4 3 3 2 2 2 2 2 2 2 2 2 2 2 2 2 2 2 1 1
3 3 4 5 5 5 7 9 9 8 7 6 6 6 5 5 4 5 6 6 6 5 5 4 4 4 3 3 3 2 2 3 2 2 2 2 2 1 1 2 2 1 1
3 3 4 6 6 6 8 10 11 11 9 8 8 8 7 6 6 6 7 8 8 7 6 5 5 5 4 4 3 3 3 3 3 3 2 2 2 2 1 1 1 1 1
3 4 5 6 8 8 9 11 13 14 12 11 10 9 8 7 7 7 9 10 10 9 7 6 6 6 5 5 4 4 3 3 4 4 3 3 3 3 2 2 2 2 2
7 7 7 8 9 10 11 13 15 16 15 14 12 10 9 8 8 9 11 11 11 10 9 8 7 7 6 5 5 5 4 4 4 4 4 4 4 4 3 3 2 2 2
11 12 12 12 11 10 11 13 15 17 17 15 13 11 9 9 9 10 11 11 11 10 10 9 9 8 6 5 5 5 5 5 5 5 5 5 4 4 3 3 3 3 3
10 13 15 16 13 12 13 13 14 15 16 14 12 10 9 9 9 9 10 10 10 10 10 10 10 8 6 4 4 4 5 6 7 7 6 5 5 4 3 3 3 3 3
5 8 11 13 12 12 13 12 11 12 12 11 9 8 8 8 8 8 9 9 10 11 11 11 10 9 7 4 3 3 5 6 7 8 9 7 5 5 4 4 3 3 3
3 4 6 7 8 10 11 11 9 7 7 8 7 7 7 7 8 9 9 10 11 12 11 11 10 9 7 5 2 2 4 5 7 9 10 8 6 5 5 5 4 4 4
3 3 4 5 7 9 10 9 6 5 5 5 6 6 6 7 8 9 11 12 12 11 11 10 10 10 8 5 2 2 3 4 6 8 9 8 6 5 4 5 6 6 5
4 4 4 5 8 9 8 6 5 4 5 5 6 7 7 7 8 9 11 11 11 10 10 10 10 10 9 6 2 2 4 5 5 6 7 6 5 4 3 4 6 6 6
4 4 4 6 7 7 6 5 4 4 5 6 7 7 7 6 7 8 9 10 9 9 10 10 10 11 10 7 3 1 4 5 5 6 6 5 3 2 2 2 4 5 4
4 4 4 5 5 5 4 4 4 4 4 5 5 6 5 5 5 6 7 8 9 10 10 11 11 11 10 8 3 1 2 4 5 5 5 4 2 1 0 1 2 2 2
4 3 3 4 4 4 3 3 3 3 3 4 4 4 4 3 4 4 5 6 8 10 11 10 10 10 10 8 5 2 1 2 3 4 4 2 1 0 0 0 0 0 0
4 3 3 3 3 3 3 4 4 4 4 4 3 3 3 3 3 3 4 5 7 8 9 8 8 8 8 7 6 3 1 1 2 2 2 1 1 0 0 0 0 0 0
3 3 3 3 3 3 3 4 5 5 5 4 3 2 2 2 3 3 3 4 5 5 5 5 5 5 4 4 4 3 2 1 1 1 1 1 1 1 0 0 0 0 0
4 4 3 3 2 3 4 5 5 6 5 4 2 2 1 2 3 3 3 2 3 3 3 3 3 3 2 2 2 2 2 1 1 1 1 1 1 1 0 0 0 0 0
Wind_Speed
7 8 8 7 7 6 5 4 4 3 3 2 1 1 1 1 1 1 2 2 1 1 0 1 0 1 0 0 0 0 1 1 1 0 1 1 1 1 2 2 3 4 3
7 8 8 7 7 6 5 5 4 4 3 2 1 1 1 1 1 1 2 2 1 0 0 1 0 1 1 0 0 1 1 1 1 1 0 1 1 1 2 2 2 3 3
7 8 7 6 7 7 6 5 4 4 2 2 1 1 1 0 1 1 2 2 2 1 1 1 0 1 1 1 1 1 1 1 1 1 1 1 1 1 1 2 1 1 1
7 8 9 7 6 7 6 5 5 4 3 2 2 1 1 1 1 1 2 2 2 2 1 1 1 1 1 0 1 0 1 1 1 1 1 1 1 1 1 2 1 1 1
7 8 8 8 7 7 7 6 5 4 3 2 1 1 0 0 1 2 2 2 2 1 1 1 1 1 1 1 1 1 1 1 1 1 1 0 1 1 1 2 2 1 1
7 8 8 8 7 7 6 6 5 4 3 2 2 1 1 1 1 2 2 1 2 1 2 2 1 0 1 1 0 1 1 1 0 1 1 1 1 1 2 2 2 2 2
7 8 8 8 7 7 7 6 5 4 3 2 2 1 1 1 1 1 1 1 1 1 1 2 1 0 1 0 1 0 1 1 1 1 1 1 1 1 1 1 1 1 1
7 7 7 8 7 7 6 6 5 4 3 3 2 1 1 1 1 1 1 1 1 2 2 2 1 0 0 0 0 1 1 1 1 1 1 1 1 1 1 1 1 2 2
8 7 7 7 7 7 6 5 5 4 3 3 3 3 2 1 1 1 1 1 1 2 3 2 1 1 1 1 0 1 0 0 0 1 1 1 1 2 1 1 1 1 2
9 9 7 6 6 6 6 5 5 5 3 3 2 3 3 2 1 1 1 1 1 1 2 1 1 0 0 0 0 1 0 0 0 0 1 1 2 2 1 1 1 1 1
8 8 7 6 6 6 6 5 5 5 4 3 2 1 2 3 2 2 2 2 1 1 1 1 1 1 0 0 0 1 0 0 1 1 1 1 2 2 2 1 1 1 1
7 7 7 7 6 6 5 5 4 4 4 3 2 2 1 2 2 2 2 2 2 1 1 1 1 1 0 0 0 1 1 1 1 1 1 2 2 2 2 2 2 1 1
6 7 6 6 5 5 4 4 4 3 3 3 3 2 2 2 2 2 2 2 2 2 1 1 1 0 0 1 1 1 1 1 1 1 1 2 2 2 2 2 2 1 1
5 5 5 5 4 4 4 3 3 2 2 2 3 3 3 3 2 2 2 2 2 3 2 2 2 1 1 1 2 1 0 1 1 1 1 2 1 1 2 2 2 1 2
5 5 5 4 3 3 3 2 2 2 2 2 2 3 3 3 2 2 2 3 3 3 2 2 2 2 1 1 1 2 1 1 1 1 1 1 1 1 1 2 1 2 2
5 5 5 4 3 3 2 2 2 2 1 2 2 3 3 3 2 2 2 2 2 2 1 1 0 1 1 2 2 2 2 1 1 2 2 1 0 1 2 2 2 2 3
4 4 4 3 2 2 2 1 1 1 2 2 2 2 3 3 3 3 2 2 2 2 2 2 2 1 1 1 2 3 3 2 2 2 1 2 2 1 2 2 3 4 6
3 3 3 3 2 2 2 1 1 1 1 2 2 2 2 3 2 2 2 2 2 2 2 2 2 2 2 2 2 3 4 3 3 2 2 2 1 3 3 3 2 3 3
3 3 3 3 2 2 2 1 1 2 2 2 2 2 2 2 2 2 2 1 2 2 2 2 2 3 3 3 3 2 3 3 3 2 2 2 1 2 3 2 3 3 3
4 3 3 4 3 2 2 2 2 2 2 2 2 2 2 2 2 2 2 2 2 3 3 3 3 3 3 5 4 3 3 3 3 2 3 3 3 3 3 3 3 4 4
4 4 4 3 3 3 2 2 2 2 2 2 1 1 2 2 2 2 2 2 3 3 3 3 3 3 4 6 6 6 3 3 3 3 2 2 4 5 5 5 4 6 5
4 4 3 3 3 3 2 2 2 2 2 2 2 2 2 3 2 2 2 3 3 3 3 4 4 3 4 5 7 8 7 5 4 4 2 1 2 4 6 6 7 8 6
4 3 3 3 2 2 2 2 2 2 2 1 1 1 2 2 2 3 3 3 3 3 3 3 4 3 3 4 7 9 8 7 5 4 5 6 7 6 6 9 10 7 5
3 3 3 3 2 2 2 1 1 1 2 1 1 2 2 3 3 3 3 3 3 2 3 3 2 1 1 2 2 2 3 5 5 5 6 8 9 8 8 7 6 5 5
3 3 3 2 2 2 1 1 0 0 1 1 2 2 3 3 2 3 2 2 1 1 1 1 2 1 0 1 2 2 2 2 2 4 4 4 4 4 4 4 4 3 3
2 2 2 2 2 1 1 1 0 0 1 1 2 2 2 2 3 3 2 0 1 2 3 2 1 0 1 2 2 1 1 2 3 2 4 4 4 4 4 4 3 2 2
Wind_Direction
142 134 134 142 136 134 137 147 143 133 139 144 165 180 185 187 147 155 135 119 109 67 168 5 16 350 332 278 205 235 257 269 261 6 310 307 221 210 222 211 201 203 200
145 136 136 142 141 143 144 145 139 141 148 141 171 191 168 211 157 121 125 129 116 37 146 98 357 56 291 191 254 260 257 255 219 182 156 253 254 299 246 200 212 206 194
149 148 147 147 148 147 152 152 143 139 156 148 168 141 127 251 108 125 122 131 135 129 46 76 47 5 268 200 240 240 256 257 245 171 150 202 231 302 284 273 226 183 190
156 155 151 152 149 145 147 140 138 138 151 146 147 151 155 188 152 131 128 139 132 120 106 46 41 353 319 27 274 36 286 246 235 196 192 177 144 199 286 279 273 220 235
152 153 150 148 142 141 139 138 133 135 137 143 145 163 136 118 87 92 112 135 136 144 113 85 34 354 352 41 320 327 278 255 248 245 240 209 208 216 222 256 264 268 247
151 146 141 138 138 138 134 135 135 136 136 152 149 150 125 94 83 82 105 149 130 131 108 108 74 333 359 43 6 352 275 299 317 305 269 220 220 230 227 228 233 244 247
137 138 141 141 142 141 136 133 133 140 149 157 148 154 162 151 126 131 151 138 121 122 112 102 98 17 5 38 92 300 289 262 259 254 270 268 270 261 246 241 253 259 261
141 145 144 143 147 140 137 133 133 139 153 160 159 159 136 161 148 165 142 115 92 105 107 105 109 77 343 334 127 239 241 208 235 266 302 299 286 281 254 232 242 258 258
151 145 142 146 146 141 138 134 132 136 147 159 164 167 159 176 169 148 143 108 91 105 96 81 71 27 6 356 327 265 267 336 208 267 282 281 288 286 288 276 237 230 262
147 142 143 146 143 140 136 138 140 148 154 157 182 177 166 169 159 133 135 119 109 80 99 105 98 83 32 330 297 286 334 349 357 294 307 308 295 299 299 287 286 246 236
148 145 144 147 140 135 142 148 147 148 156 158 157 152 170 169 162 154 146 132 122 129 129 150 162 181 189 270 299 283 323 319 321 316 321 298 293 307 305 310 308 292 253
145 145 144 142 141 143 145 143 147 158 164 159 158 161 155 159 163 171 164 156 163 171 185 172 194 229 189 125 293 302 332 303 288 297 308 305 303 311 326 333 322 315 294
138 141 137 136 140 142 143 147 160 168 175 167 164 153 153 161 179 181 173 168 173 176 193 179 185 259 342 340 318 306 332 332 322 327 323 324 338 336 336 321 315 308 299
130 131 134 135 138 139 146 156 168 168 170 162 162 156 166 174 187 191 186 186 197 196 197 201 201 205 217 291 306 297 278 312 328 355 339 325 343 338 321 305 306 306 304
132 130 135 136 143 146 151 160 171 163 157 162 163 159 165 175 175 186 206 200 211 210 196 212 216 217 212 266 312 300 270 301 320 329 330 343 35 17 320 308 329 310 285
147 140 137 137 139 141 155 160 167 152 158 185 184 169 163 165 172 187 211 207 209 215 205 211 215 294 319 14 359 330 313 302 296 307 318 292 187 238 241 258 272 270 269
139 130 131 138 136 133 136 156 166 155 178 199 195 177 178 187 194 205 204 200 212 211 214 211 183 166 93 347 302 311 298 282 276 277 294 303 319 324 289 258 251 256 252
132 130 140 142 138 139 138 138 151 170 189 201 219 207 198 197 194 197 207 206 210 214 209 215 195 172 169 200 253 292 269 265 267 261 249 254 279 309 315 297 285 273 268
119 126 140 143 141 147 145 156 178 191 210 216 218 221 206 193 199 207 208 208 215 222 214 209 204 190 176 200 225 259 260 246 251 249 256 258 256 290 302 290 287 287 287
117 124 138 135 135 142 146 180 197 216 232 242 237 225 221 210 208 212 216 224 228 228 230 217 211 204 185 197 211 225 260 263 259 236 226 232 242 244 250 260 278 280 284
124 133 133 138 146 154 159 184 199 221 249 256 249 236 240 233 214 206 223 230 234 230 237 229 224 212 190 193 206 209 245 277 285 273 243 207 220 237 249 250 254 262 274
136 135 132 144 148 158 171 189 213 239 247 257 258 248 238 248 228 203 226 233 243 239 241 241 235 218 189 185 202 211 228 258 286 293 305 321 266 256 257 255 260 269 276
141 139 147 147 152 165 178 198 224 248 250 254 267 253 241 242 225 210 220 234 239 251 251 241 240 224 187 178 196 212 232 246 259 284 298 291 278 269 259 250 258 264 261
144 143 156 166 166 171 185 204 218 232 252 258 268 263 248 231 221 226 218 216 233 246 265 272 277 257 153 142 172 218 234 248 255 273 276 270 263 259 263 268 253 240 246
154 161 171 172 172 163 166 169 184 210 261 272 266 265 260 246 227 219 235 238 234 205 258 307 331 334 343 189 194 219 254 271 284 293 281 273 262 252 253 255 252 243 243
154 157 162 168 179 182 174 148 162 212 258 258 261 256 258 259 248 226 209 56 189 186 184 184 203 332 180 196 209 204 268 286 294 289 277 276 276 277 281 279 272 264 264